Regional Weather Roundup
Issued by NWS Sterling, VA

Home | Current Version | Previous Version | Text Only | Print | Product List | Glossary On
Versions: 1 2 3 4 5 6 7 8 9 10 11 12 13 14 15 16 17 18 19 20 21 22 23 24 25 26 27 28 29 30 31 32 33 34 35 36 37 38 39 40 41 42 43 44 45 46 47 48 49 50
000
ASUS41 KLWX 071410
RWRLWX

REGIONAL WEATHER ROUNDUP
NATIONAL WEATHER SERVICE BALTIMORE MD/WASHINGTON DC
1000 AM EDT TUE JUL 07 2015

Note: "FAIR" indicates few or no clouds below 12,000 feet
with no significant weather and/or obstructions to visibility.
 TC=TEMPERATURE CELSIUS

 * =Non NWS site. Station does not report precipitation (e.g. rain,
    snow, etc.), thunder, or fog.

DCZ001-MDZ009-015-VAZ040>042-051-053>054-071500-
WASHINGTON METRO

CITY           SKY/WX    TMP DP  RH WIND       PRES   REMARKS
WASHINGTON NAT MOSUNNY   81  73  76 S9        30.06F
DULLES         MOSUNNY   77  72  84 CALM      30.06F
FT BELVOIR     MOSUNNY   81  73  76 VRB7      30.06F
QUANTICO       MOSUNNY   77  71  82 S8        30.07F
COLLEGE PARK*  SUNNY     81  72  74 CALM      30.05F
LEESBURG*      SUNNY     81  75  83 W3        30.08R
MANASSAS*      SUNNY     81  73  78 CALM      30.07F
GAITHERSBURG*  MOSUNNY   77  72  83 CALM      30.10S

$$

MDZ006>007-011-014-071500-
BALTIMORE METRO

CITY           SKY/WX    TMP DP  RH WIND       PRES   REMARKS
BWI AIRPORT    MOSUNNY   79  72  79 W3        30.05F
MD SCIENCE CTR   N/A     81  72  74 MISG      30.07S
MARTIN STATE   MOSUNNY   81  75  83 S5        30.07S
ANNAPOLIS      MOSUNNY   80  71  74 CALM      30.05F
FORT MEADE*    SUNNY     79  72  78 SW3       30.08F

$$

MDZ012-015-019>023-071500-
MARYLAND EASTERN SHORE

CITY           SKY/WX    TMP DP  RH WIND       PRES   REMARKS
OCEAN CITY     SUNNY     83  74  74 S9        30.07S
SALISBURY      MOSUNNY   83  74  74 SW12G20   30.07S
BAY BRIDGE AP*   N/A     79  72  78 SW6       30.07R
CAMBRIDGE*     SUNNY     81  70  69 W8        30.07S
EASTON*        MOSUNNY   82  77  83 W12       30.10S HX  91

$$

MDZ017>025-071500-
SOUTHERN MARYLAND

CITY           SKY/WX    TMP DP  RH WIND       PRES   REMARKS
PATUXENT RIVER MOSUNNY   81  71  71 W10       30.07S
ST INIGOES     NOT AVBL
LEONARDTOWN*   SUNNY     79  70  73 SW7       30.09S

$$

MDZ003>005-071500-
NORTH CENTRAL MARYLAND

CITY           SKY/WX    TMP DP  RH WIND       PRES   REMARKS
FREDERICK*     PTSUNNY   79  73  83 SW7       30.09S
HAGERSTOWN APT CLOUDY    76  68  76 SW7       30.07S
WESTMINSTER*   MOSUNNY   77  73  88 SW3       30.07S

$$

MDZ501>502-071500-
WESTERN MARYLAND

CITY           SKY/WX    TMP DP  RH WIND       PRES   REMARKS
OAKLAND*       PTSUNNY   68 N/A N/A W7        30.17R HAZE
CUMBERLAND*    SUNNY     75  70  83 S6        30.10F

$$

VAZ025>031-071500-
SHENANDOAH VALLEY

CITY           SKY/WX    TMP DP  RH WIND       PRES   REMARKS
WINCHESTER*    SUNNY     79  68  69 SW7       30.08S
FRONT ROYAL*   FAIR      77  68  73 SW7       30.08S
LURAY*         FAIR      79  70  73 SW8       30.10F
NEW MARKET*    FAIR      77  68  73 S7        30.09S
STAUNTON*      SUNNY     79  69  70 S6        30.14F
WAYNESBORO*    FAIR      75  66  74 SW7       30.14F

$$

WVZ021-048>050-054>055-071500-
EASTERN WEST VIRGINIA PANHANDLE

CITY           SKY/WX    TMP DP  RH WIND       PRES   REMARKS
MARTINSBURG    MOSUNNY   79  70  74 S6        30.07F
PETERSBURG*    SUNNY     77  68  72 CALM      30.09F

$$

VAZ036>039-050-071500-
CENTRAL FOOTHILLS

CITY           SKY/WX    TMP DP  RH WIND       PRES   REMARKS
CHARLOTTESVILL SUNNY     79  66  64 SW3       30.10S
CULPEPER*      SUNNY     78  72  80 SW3       30.09R
ORANGE*        SUNNY     82  68  61 SW7       30.10R
GORDONSVILLE*  FAIR      79  70  73 W3        30.09R
WARRENTON*     FAIR      82  74  77 SW3       30.07S

$$

VAZ055>057-071500-
NORTH AND CENTRAL PIEDMONT

CITY           SKY/WX    TMP DP  RH WIND       PRES   REMARKS
FREDERICKSBRG* SUNNY     82  73  73 CALM      30.06S
STAFFORD*      SUNNY     79  71  77 CALM      30.10F

$$

NCZ024-NYZ072-PAZ021-071-VAZ022-071-071500-
OTHER REGIONAL OBSERVATIONS

CITY           SKY/WX    TMP DP  RH WIND       PRES   REMARKS
NEW YORK CITY  CLOUDY    80  71  74 VRB6      30.06F
PHILADELPHIA   MOSUNNY   81  72  74 W12       30.05S
PITTSBURGH     MOSUNNY   76  68  76 SW9       30.04S
ROANOKE        SUNNY     76  67  73 W7        30.16F
RICHMOND       SUNNY     80  71  74 S5        30.09F
RALEIGH        MOSUNNY   81  72  74 SW5       30.15R

$$

ANZ530>537-071500-
MARINE OBSERVATIONS

STATION/POSITION TIME  TEMP    WIND        PRES
                       AIR SEA DIR/SP/G
                 (UTC) (F)     (DEG/KT/KT) (MB)
THOMAS PT LIGHT  1400   76 77  190/  3/  3 1018.4S
BALT KEY BRIDGE  1300   76     260/  4/  5 1017.7R
COVE POINT       1300   77     260/  9/ 12 1018.8R
LEWISETTA        1300   78 80  260/  8/ 10 1018.5R
SOLOMONS ISLAND  1300      80                N/A
PINEY POINT      1300          280/  6/  7   N/A

$$




USA.gov is the U.S. government's official web portal to all federal, state and local government web resources and services.